"Pseudo-MPEC" for P10IoBS

Created 2018 Jul 18 19:18:39 UT using Find_Orb

Click here for an explanation of pseudo-MPECs

 
 Astrometry: 
     P10IoBS  C2018 07 11IcAstrometry5Vy34X8W5IR06O0eVgtMX1!0CL])O+S+s1D+Fm71F51
     P10IoBS  C2018 07 11]=`H(p5VwmAyWd%nmredacted;Tne:Gqseeg2oLYcjy[*G=7tx^;F51
     P10IoBS  C2018 07 11Qp0dM3mX4dG3LZO6$(q.P4bAb:%$EO^/:eN'X`;B`bU3v^#NEOCPF51

Station data:
(F51) Pan-STARRS 1, Haleakala  (N20.707235 W156.255910)  US/Hawaii.
   Observers N. Primak, A. Schultz, S. Watters, J. Thiel, T. Goggia. Measurer
   PS1 Science Consortium. 1.8-m Ritchey-Chrétien + CCD.

Orbital elements:  P10IoBS
   Perihelion 2018 Feb 10.488615 +/- 1195 TT = 11:43:36 (JD 2458159.988615)
Epoch 2018 Jul 12.0 TT = JDT 2458311.5   Earth MOID: 0.0124   Ve: 0.0499
M 172.33047 +/- 120                 (J2000 ecliptic)          AutoNEOCP
n   1.13740938 +/- 0.532            Peri.  336.14879 +/- 43
a   0.90891829 +/- 0.283            Node   143.86601 +/- 17
e   0.1765457 +/- 0.179             Incl.    2.07974 +/- 49
P   0.87/316.50d           H 25.0   G  0.15   U 12.4  SR
q 0.74845264 +/- 3    Q 1.06938394 +/- 51.2
From 3 observations 2018 July 11 (43.8 min); mean residual 0".22
Residuals in arcseconds: 
180711 F51  .18+  .22+    180711 F51  .26-  .33-    180711 F51  .08+  .11+    

Ephemerides (geocentric):
Date (UTC) HH   RA              Dec         delta   r     elong  mag " sig PA
---- -- -- --  -------------   -----------  ------ ------ -----  --- ---- ---
2018 07 18 19  23 20 26.803   +06 05 57.53  .09451 1.0694 122.0 21.9  25d   0
2018 07 18 20  23 20 26.360   +06 05 40.82  .09442 1.0694 122.1 21.9  25d   0
2018 07 18 21  23 20 25.909   +06 05 24.02  .09433 1.0694 122.1 21.9  25d   0
2018 07 18 22  23 20 25.449   +06 05 07.12  .09424 1.0694 122.1 21.9  25d   0
2018 07 18 23  23 20 24.982   +06 04 50.12  .09415 1.0694 122.2 21.9  25d   0
2018 07 19 00  23 20 24.505   +06 04 33.02  .09406 1.0694 122.2 21.9  25d   0
2018 07 19 01  23 20 24.021   +06 04 15.82  .09396 1.0694 122.3 21.9  25d   0
2018 07 19 02  23 20 23.528   +06 03 58.53  .09387 1.0694 122.3 21.9  25d   0
2018 07 19 03  23 20 23.027   +06 03 41.14  .09378 1.0694 122.4 21.9  25d   0
2018 07 19 04  23 20 22.517   +06 03 23.65  .09369 1.0694 122.4 21.9  25d   0
2018 07 19 05  23 20 21.999   +06 03 06.06  .09360 1.0694 122.4 21.9  25d   0
2018 07 19 06  23 20 21.472   +06 02 48.37  .09351 1.0694 122.5 21.9  25d   0
2018 07 19 07  23 20 20.937   +06 02 30.58  .09342 1.0694 122.5 21.9  25d   0
2018 07 19 08  23 20 20.393   +06 02 12.69  .09332 1.0694 122.6 21.9  25d   0
2018 07 19 09  23 20 19.841   +06 01 54.70  .09323 1.0694 122.6 21.9  25d   0
2018 07 19 10  23 20 19.280   +06 01 36.61  .09314 1.0694 122.7 21.9  25d   0
2018 07 19 11  23 20 18.711   +06 01 18.42  .09305 1.0694 122.7 21.9  25d   0
2018 07 19 12  23 20 18.133   +06 01 00.13  .09296 1.0694 122.7 21.9  25d   0
2018 07 19 13  23 20 17.547   +06 00 41.74  .09287 1.0694 122.8 21.9  25d   0
2018 07 19 14  23 20 16.952   +06 00 23.24  .09278 1.0694 122.8 21.9  25d   0
2018 07 19 15  23 20 16.349   +06 00 04.65  .09268 1.0694 122.9 21.9  25d   0
2018 07 19 16  23 20 15.736   +05 59 45.95  .09259 1.0694 122.9 21.9  25d   0
2018 07 19 17  23 20 15.115   +05 59 27.15  .09250 1.0694 123.0 21.9  25d   0
2018 07 19 18  23 20 14.486   +05 59 08.25  .09241 1.0694 123.0 21.9  25d   0
2018 07 19 19  23 20 13.848   +05 58 49.24  .09232 1.0694 123.1 21.9  25d   0
2018 07 19 20  23 20 13.201   +05 58 30.14  .09223 1.0694 123.1 21.9  25d   0
2018 07 19 21  23 20 12.545   +05 58 10.92  .09214 1.0694 123.1 21.9  25d   0
2018 07 19 22  23 20 11.881   +05 57 51.61  .09204 1.0694 123.2 21.9  25d   0
2018 07 19 23  23 20 11.208   +05 57 32.19  .09195 1.0693 123.2 21.9  25d   0
2018 07 20 00  23 20 10.526   +05 57 12.67  .09186 1.0693 123.3 21.9  25d   0
2018 07 20 01  23 20 09.835   +05 56 53.04  .09177 1.0693 123.3 21.8  25d   0
2018 07 20 02  23 20 09.136   +05 56 33.31  .09168 1.0693 123.4 21.8  25d   0
2018 07 20 03  23 20 08.427   +05 56 13.47  .09159 1.0693 123.4 21.8  25d   0
2018 07 20 04  23 20 07.710   +05 55 53.53  .09150 1.0693 123.5 21.8  25d   0
2018 07 20 05  23 20 06.984   +05 55 33.49  .09140 1.0693 123.5 21.8  25d   0
2018 07 20 06  23 20 06.249   +05 55 13.33  .09131 1.0693 123.5 21.8  25d   0
2018 07 20 07  23 20 05.505   +05 54 53.07  .09122 1.0693 123.6 21.8  25d   0
2018 07 20 08  23 20 04.752   +05 54 32.71  .09113 1.0693 123.6 21.8  25d   0
2018 07 20 09  23 20 03.990   +05 54 12.24  .09104 1.0693 123.7 21.8  25d   0
2018 07 20 10  23 20 03.219   +05 53 51.66  .09095 1.0693 123.7 21.8  25d   0
2018 07 20 11  23 20 02.440   +05 53 30.97  .09086 1.0693 123.8 21.8  25d   0
2018 07 20 12  23 20 01.651   +05 53 10.18  .09076 1.0693 123.8 21.8  25d   0
2018 07 20 13  23 20 00.853   +05 52 49.28  .09067 1.0693 123.9 21.8  25d   0
2018 07 20 14  23 20 00.046   +05 52 28.27  .09058 1.0693 123.9 21.8  25d   0
2018 07 20 15  23 19 59.230   +05 52 07.16  .09049 1.0693 123.9 21.8  25d   0
2018 07 20 16  23 19 58.405   +05 51 45.93  .09040 1.0693 124.0 21.8  25d   0
2018 07 20 17  23 19 57.571   +05 51 24.60  .09031 1.0693 124.0 21.8  25d   0
2018 07 20 18  23 19 56.728   +05 51 03.15  .09022 1.0693 124.1 21.8  25d   0